Skip Page Navigation
NASA JPL Caltech
NASA Logo - Jet Propulsion Laboratory + View the NASA Portal
+ Center for Near-Earth Object Studies
JPL Home Earth Solar System Stars & Galaxies Technology
JPL Solar System Dynamics
BODIES ORBITS EPHEMERIDES TOOLS PHYSICAL DATA DISCOVERY FAQ SITE MAP
JPL Small-Body Database Browser
Search: [ help ]  
233307 (2006 BP72)
Classification: Main-belt Asteroid          SPK-ID: 2233307
Ephemeris | Orbit Diagram | Orbital Elements | Mission Design | Physical Parameters | Discovery Circumstances | Close-Approach Data ]

[ show orbit diagram ]
Orbital Elements at Epoch 2459000.5 (2020-May-31.0) TDB
Reference: JPL 9 (heliocentric ecliptic J2000)
 Element Value Uncertainty (1-sigma)   Units 
e .1177421720615894 6.219e-07  
a 2.53167335585528 3.2298e-08 au
q 2.233588635986426 1.5946e-06 au
i 4.054841364967159 8.7109e-06 deg
node 20.14075494321967 0.00019752 deg
peri 113.5806580964492 0.00024306 deg
M 202.6404487536106 0.00011024 deg
tp 2459643.632624735925
(2022-Mar-05.13262474)
0.00044248 TDB
period 1471.329468539301
4.03
2.8156e-05
7.709e-08
d
yr
n .2446766735103857 4.6822e-09 deg/d
Q 2.829758075724134 3.6101e-08 au
  Orbit Determination Parameters
   # obs. used (total)      150  
   data-arc span      5832 days (15.97 yr)  
   first obs. used      2002-02-07  
   last obs. used      2018-01-26  
   planetary ephem.      DE431  
   SB-pert. ephem.      SB431-N16  
   condition code      0  
   norm. resid. RMS      .59117  
   source      ORB  
   producer      Otto Matic  
   solution date      2018-Feb-06 08:27:30  

Additional Information
 Earth MOID = 1.25132 au 
 Jupiter MOID = 2.20039 au 
 T_jup = 3.437 
[ show covariance matrix ]

Ephemeris | Orbit Diagram | Orbital Elements | Mission Design | Physical Parameters | Discovery Circumstances | Close-Approach Data ]

Physical Parameter Table
Parameter Symbol Value Units Sigma Reference Notes
absolute magnitude H 16.9   n/a MPO437096  

233307 (2006 BP72)          Discovered 2006-Jan-23 by Spacewatch at Kitt Peak
Reference: 20100228/Numbers.arcLast Updated: 2010-03-03

[ show close-approach data ]
Ephemeris | Orbit Diagram | Orbital Elements | Mission Design | Physical Parameters | Discovery Circumstances | Close-Approach Data ]
ABOUT SSD CREDITS/AWARDS PRIVACY/COPYRIGHT GLOSSARY LINKS
FirstGov 2020-Aug-05 11:25 UT
(server date/time)  
NASA Home Page
Site Manager:   Ryan S. Park
Webmaster  Alan B. Chamberlin